Regional Weather Roundup
Issued by NWS Charleston, WV

Home | Current Version | Previous Version | Graphics & Text | Print | Product List | Glossary On
Versions: 1 2 3 4 5 6 7 8 9 10 11 12 13 14 15 16 17 18 19 20 21 22 23 24 25 26 27
000
ASUS41 KRLX 031210
RWRRLX
West Virginia Regional Weather Roundup
National Weather Service Charleston WV
800 AM EDT TUE MAY 03 2016

Note: "fair" indicates few or no clouds below 12,000 feet with no
significant weather and/or obstructions to visibility.

WVZ003-031300-
Northern Panhandle of West Virginia

CITY           SKY/WX    TMP DP  RH WIND       PRES   REMARKS
WHEELING       CLOUDY    48  43  82 N3        29.88R
$$

WVZ009-031300-
Northwest West Virginia

CITY           SKY/WX    TMP DP  RH WIND       PRES   REMARKS
PARKERSBURG    PTSUNNY  N/A N/A N/A N5        29.90S
$$

WVZ006-031300-
Western West Virginia

CITY           SKY/WX    TMP DP  RH WIND       PRES   REMARKS
HUNTINGTON     CLOUDY    57  55  93 NW3       29.87S FOG
$$

WVZ015-031300-
West Central West Virginia

CITY           SKY/WX    TMP DP  RH WIND       PRES   REMARKS
CHARLESTON     CLOUDY    58  56  93 NW6       29.86S FOG
$$

WVZ022-031-031300-
North Central West Virginia

CITY           SKY/WX    TMP DP  RH WIND       PRES   REMARKS
CLARKSBURG     CLOUDY    56  54  93 NE3       29.85F
MORGANTOWN     CLOUDY    53  48  83 NW3       29.88R
$$

WVZ025-035-042-045-031300-
Southern West Virginia

CITY           SKY/WX    TMP DP  RH WIND       PRES   REMARKS
BECKLEY        CLOUDY    56  54  93 VRB5      29.88S
LOGAN          NOT AVBL
BLUEFIELD      CLOUDY    54  52  93 W7        29.90R
LEWISBURG      LGT RAIN  56  55  97 CALM      29.87S
$$

WVZ047-031300-
Northern Mountains of West Virginia

CITY           SKY/WX    TMP DP  RH WIND       PRES   REMARKS
ELKINS         CLOUDY    55  52  89 CALM      29.87R
$$

WVZ052-031300-
Eastern Panhandle of West Virginia

CITY           SKY/WX    TMP DP  RH WIND       PRES   REMARKS
MARTINSBURG    CLOUDY    59  56  89 N6        29.82R
PETERSBURG     DRIZZLE   61  58  87 N6        29.84S
$$




USA.gov is the U.S. government's official web portal to all federal, state and local government web resources and services.